User: anonymous   Login
Location: Ash Swamp
(41.5170°N, 74.6157°W)
Time: 01:06:54
(UTC+00:00)
Language:

SL-16 R/B - Orbit

View from above orbital plane
View from above orbital plane
View from above satellite
View from above satellite

Ground track
Ground track

The orbit data is extracted from the following two-line orbital elements,

1 31793U 07029B   20272.58848446 +.00000247 +00000-0 +15408-3 0  9995
2 31793 070.9774 029.7096 0001707 260.1164 111.5082 14.14432189684268
Epoch (UTC): 28 September 2020 14:07:25
Eccentricity: 0.0001707
inclination: 70.9774°
perigee height: 843 km
apogee height: 845 km
right ascension of ascending node: 29.7096°
argument of perigee: 260.1164°
revolutions per day: 14.14432189
mean anomaly at epoch: 111.5082°
orbit number at epoch: 68426

The dashed part of the orbit path shows where the satellite is in the earth's shadow,  

DLR